METAR LSZS 192150Z AUTO 00000KT 9999 BKN004 11/11 Q1025=
Diese Daten sind ohne Gewähr und dürfen nicht für die Flugvorbereitung verwendet werden.
Information contained in this website shall not be used for flight operation purposes.